Regional Weather Roundup
Issued by NWS Midland/Odessa, TX

Skip options and go directly to product.
Home | Oldest Version | Next Version | Current Version | All | Text Only | Save Text | Print | Product List | Glossary On

Skip product version selection by date and time.   
646
ASUS44 KMAF 242301
RWRMAF
MIDLAND AREA WEATHER ROUNDUP
NATIONAL WEATHER SERVICE MIDLAND TX
600 PM CDT WED AUG 24 2016

...IN SOUTHWEST TEXAS AND SOUTHEAST NEW MEXICO...

CITY           SKY/WX    TMP DP  RH WIND       PRES   REMARKS
ALPINE         MOSUNNY   73  63  68 CALM      30.22F
ANDREWS        NOT AVBL
ARTESIA        SUNNY     79  63  57 SE23      30.05S
BIG SPRING     CLOUDY    70  65  86 NW9       30.10R
CARLSBAD       SUNNY     77  64  64 S17       30.04F
DRYDEN           N/A     91  66  43 SE16      29.99F
FORT STOCKTON  MOSUNNY   73  64  73 SW3       30.09F
GUAD PASS      SUNNY     79  56  45 S9        30.20F
HOBBS          NOT AVBL
MARFA          SUNNY    N/A N/A N/A SE3       30.19F
MIDLAND AIRPK  LGT RAIN  77  63  61 NW6       30.08F
MIDLAND INTL   PTSUNNY   76  64  66 N6        30.06F
ODESSA         CLOUDY    75  64  68 NW8       30.08F
PECOS          CLOUDY    74  66  76 S3        30.07F
PRESIDIO       NOT AVBL
SEMINOLE       CLOUDY    71  61  70 CALM      30.10S
SNYDER           N/A     81  64  55 SW3       30.03R
WINK           CLOUDY    70  65  84 CALM      30.06F
$$
...OTHER STATIONS IN TEXAS...

CITY           SKY/WX    TMP DP  RH WIND       PRES   REMARKS
ABILENE        MOSUNNY   91  64  40 S16       30.02F
AMARILLO       MOSUNNY   83  57  41 S20       30.05F
AUSTIN         MOSUNNY   92  69  47 S10       30.03F
BROWNSVILLE    LGT RAIN  91  71  51 SE15G25   29.99F
CORPUS CHRISTI MOSUNNY   91  71  51 SE17G24   30.00F
DALLAS FTW     MOSUNNY   92  69  47 S16       30.01F
DEL RIO        SUNNY     93  65  39 SE16G24   29.95F
EL PASO        MOSUNNY   89  48  24 VRB5      30.04F
HOUSTON INT    PTSUNNY   84  74  71 SE10      30.05F
LUBBOCK        PTSUNNY   80  58  46 SW18      30.08F
SAN ANGELO     SUNNY     93  60  33 S14G20    30.02F
SAN ANTONIO    MOSUNNY   89  69  51 SE12      30.03F
WACO           SUNNY     92  70  48 S15       30.03F
WICHITA FALLS  NOT AVBL
$$
...OTHER LOCATIONS IN NEW MEXICO...

CITY           SKY/WX    TMP DP  RH WIND       PRES   REMARKS
ALAMAGORDO     MOSUNNY   86  45  23 SW10      30.06F
ALBUQUERQUE    PTSUNNY   75  49  39 N16G24    30.17F
CANNON AFB     NOT AVBL
CLOVIS         MOSUNNY   81  54  39 S20       30.10R
HOLLOMAN AFB   SUNNY     89  45  21 W12G21    30.03F
ROSWELL        MOSUNNY   80  59  48 S22G29    30.05S
RUIDOSO          N/A     72  43  35 W15G23    30.25S
SANTA FE       CLOUDY    69  45  41 NE8       30.22F
TRUTH OR CONSE TSTM      80  48  32 NW5       30.09S
TUCUMCARI      CLOUDY    87  47  24 S14G21    30.03S
$$

USA.gov is the U.S. government's official web portal to all federal, state and local government web resources and services.